Вернуться в каталог

STARLINK-37282

АктивенСвязьVLEO
NORAD 69190·PAYLOAD·🇺🇸 United States

Запущен May 25, 2026 с Cape Canaveral Space Force Station

Loading…

Ближайшие Пролёты (ближайшие 24 часа)

TLE

СвежийSource: CelesTrak SupGP

Эпоха: Sep 14, 2026, 22:36 UTC

1 69190C 26114J   26257.94215278 -.00055944  00000+0 -16529-2 0  2579
2 69190  53.1561 139.8364 0001222  79.3005 188.4242 15.34417227    19

Отслеживайте STARLINK-37282 в реальном времени с AllMySat

Download on the App Store